Weather reports worldwide

Advertisment
Ouessant, France (7100): temperature & dewpoint: 12.10.2018 19:00:00 - 18.10.2018 19:00:00 (CEST)Ouessant, France (7100): wind speed & gusts: 12.10.2018 19:00:00 - 18.10.2018 19:00:00 (CEST)Ouessant, France (7100): wind direction: 12.10.2018 19:00:00 - 18.10.2018 19:00:00 (CEST)Ouessant, France (7100): reduced air pressure: 12.10.2018 19:00:00 - 18.10.2018 19:00:00 (CEST)Ouessant, France (7100): visibility: 12.10.2018 19:00:00 - 18.10.2018 19:00:00 (CEST)Ouessant, France (7100): precipitation: 12.10.2018 19:00:00 - 18.10.2018 19:00:00 (CEST)
Date & Time tt [°C] td [°C] ff [km/h] ff [kn] fx [km/h] fx [kn] dd ppp [hPa] vv [km] rr [mm]
18.10.2018 19:00:00 - - - - - - - - - -
18.10.2018 18:00:00 14,7 13,4 32 18 47 25 ENE 1022,1 - 0,0
18.10.2018 17:00:00 15,1 13,3 32 18 46 25 ENE 1022,1 8 0,0
18.10.2018 16:00:00 15,5 13,7 27 15 46 25 NE 1022,3 - 0,0
18.10.2018 15:00:00 15,7 13,7 31 17 49 26 NE 1022,6 - 0,0
18.10.2018 14:00:00 15,2 14,1 32 17 46 25 NE 1023,0 12 0,0
18.10.2018 13:00:00 14,8 14,2 31 17 42 23 NNE 1023,4 - 0,0
18.10.2018 12:00:00 14,3 13,7 20 11 31 17 NNE 1023,6 - 0,0
18.10.2018 11:00:00 14,2 13,2 16 9 39 21 NNE 1023,3 12 0,0
18.10.2018 10:00:00 14,4 13,8 33 18 42 23 E 1022,4 - 0,0
18.10.2018 09:00:00 13,2 12,9 30 16 41 22 NNE 1022,4 - 0,0
18.10.2018 08:00:00 13,3 13,1 29 16 39 21 NNE 1021,9 18 0,0
18.10.2018 07:00:00 13,3 13,1 29 16 41 22 NNE 1022,0 - 0,0
18.10.2018 06:00:00 13,1 12,9 30 16 40 22 NNE 1021,8 - 0,0
18.10.2018 05:00:00 12,9 12,7 23 13 36 20 NNE 1021,8 18 0,2
18.10.2018 04:00:00 13,0 12,8 31 17 42 23 NNE 1021,9 - 0,0
18.10.2018 03:00:00 13,0 13,0 24 13 38 20 N 1021,9 - 0,0
18.10.2018 02:00:00 12,9 12,9 25 14 37 20 NNE 1021,7 10 0,0
18.10.2018 01:00:00 12,9 12,9 25 14 36 19 NNE 1021,6 - 0,0
18.10.2018 00:00:00 12,8 12,8 24 13 33 18 NNE 1021,5 - 0,0
17.10.2018 23:00:00 12,6 12,6 21 11 35 19 NE 1021,2 8 0,0
17.10.2018 22:00:00 12,9 12,9 29 15 39 21 ENE 1020,6 - 0,6
17.10.2018 21:00:00 13,2 13,2 31 17 37 20 E 1019,9 - 0,0
17.10.2018 20:00:00 13,1 13,1 18 10 48 26 NE 1019,0 - 0,0
17.10.2018 19:00:00 12,7 12,7 35 19 51 27 N 1018,3 - 0,0
17.10.2018 18:00:00 12,4 12,4 35 19 54 29 N 1017,9 - 0,0
17.10.2018 17:00:00 12,4 12,4 34 18 52 28 N 1017,7 3,0 0,0
17.10.2018 16:00:00 12,6 12,6 30 16 45 25 N 1017,6 - 0,4
17.10.2018 15:00:00 12,4 12,4 30 16 44 24 N 1017,5 - 0,4
17.10.2018 14:00:00 12,3 12,3 35 19 48 26 N 1017,4 3,0 0,2
17.10.2018 13:00:00 12,5 12,5 31 17 48 26 N 1017,7 - 0,4
17.10.2018 12:00:00 12,5 12,5 28 15 40 22 N 1017,5 - 1,5
17.10.2018 11:00:00 13,4 13,2 10 6 30 16 WNW 1017,5 1,0 0,8
17.10.2018 10:00:00 13,5 13,3 22 12 30 16 S 1016,9 - 0,4
17.10.2018 09:00:00 13,5 13,3 19 10 28 15 S 1016,7 - 0,4
17.10.2018 08:00:00 13,6 13,4 20 11 29 16 S 1016,8 0,1 0,6
17.10.2018 07:00:00 13,5 13,3 20 11 29 16 S 1016,7 - 0,8
17.10.2018 06:00:00 13,5 13,3 21 11 29 16 S 1016,8 - 0,8
17.10.2018 05:00:00 13,6 13,3 19 11 26 14 SW 1016,8 5 0,8
17.10.2018 04:00:00 13,5 12,9 19 10 26 14 SSW 1017,4 - 0,0
17.10.2018 03:00:00 13,6 12,8 21 11 29 16 SSW 1017,6 - 0,0
17.10.2018 02:00:00 13,5 12,7 21 11 31 17 S 1018,0 - 0,2
17.10.2018 01:00:00 13,6 12,8 23 12 37 20 S 1018,2 - 0,0
17.10.2018 00:00:00 13,5 12,7 25 14 37 20 S 1018,4 - 0,0
16.10.2018 23:00:00 12,9 12,3 27 15 32 18 S 1018,3 20 0,0
16.10.2018 22:00:00 12,5 12,0 24 13 29 16 S 1018,2 - 0,0
16.10.2018 21:00:00 12,4 11,9 20 11 26 14 S 1018,2 - 0,0
16.10.2018 20:00:00 12,4 11,6 18 10 22 12 SSW 1018,1 - 0,0
16.10.2018 19:00:00 13,5 11,7 16 8 24 13 S 1017,8 - 0,0
16.10.2018 18:00:00 14,5 12,0 18 10 27 15 S 1017,6 - 0,0
16.10.2018 17:00:00 16,1 11,5 20 11 29 15 SSW 1017,7 - 0,0
16.10.2018 16:00:00 15,2 12,3 15 8 25 13 SSW 1017,4 - 0,0
16.10.2018 15:00:00 15,1 12,2 16 8 23 13 SSW 1017,3 - 0,0
16.10.2018 14:00:00 14,5 12,0 12 6 21 11 SW 1017,4 20 0,0
16.10.2018 13:00:00 14,3 13,0 17 9 22 12 SSW 1017,2 - 0,0
16.10.2018 12:00:00 13,5 12,6 16 8 23 12 S 1017,0 - 0,0
16.10.2018 11:00:00 13,3 12,8 16 9 23 13 SSW 1016,9 20 0,0
16.10.2018 10:00:00 12,8 12,3 12 7 17 9 SSW 1016,4 - 0,0
16.10.2018 09:00:00 12,4 11,9 13 7 16 8 S 1015,6 - 0,0
16.10.2018 08:00:00 11,7 11,2 7 4 11 6 SSE 1015,1 - 0,0
16.10.2018 07:00:00 11,4 11,1 8 4 9 5 S 1014,7 - 0,0
16.10.2018 06:00:00 11,4 10,9 8 4 9 5 SW 1014,3 - 0,0
16.10.2018 05:00:00 11,9 11,4 6 3 7 4 WNW 1014,1 15 0,0
16.10.2018 04:00:00 12,2 11,9 2 1 8 4 WSW 1014,1 - 0,0
16.10.2018 03:00:00 12,2 11,9 6 4 11 6 NW 1014,1 - 0,0
16.10.2018 02:00:00 12,3 11,8 10 5 11 6 W 1013,8 10 0,0
16.10.2018 01:00:00 12,3 11,8 6 3 10 6 W 1013,7 - 0,0
16.10.2018 00:00:00 12,0 11,5 7 4 8 5 W 1013,7 - 0,0
15.10.2018 23:00:00 12,1 11,6 6 4 15 8 E 1013,5 20 0,0
15.10.2018 22:00:00 12,0 11,4 12 7 18 10 ENE 1012,6 - 0,0
15.10.2018 21:00:00 12,2 11,6 13 7 24 13 NNE 1012,1 - 0,0
15.10.2018 20:00:00 12,2 11,4 19 10 25 14 NNE 1011,8 - 0,0
15.10.2018 19:00:00 12,3 11,4 18 10 26 14 N 1011,3 - 0,0
15.10.2018 18:00:00 12,3 11,5 17 9 26 14 N 1011,1 - 0,0
15.10.2018 17:00:00 12,7 11,6 13 7 24 13 N 1010,7 20 0,0
15.10.2018 16:00:00 13,2 11,3 18 10 26 14 NNW 1010,3 - 0,0
15.10.2018 15:00:00 13,2 11,1 16 8 26 14 N 1010,4 - 0,0
15.10.2018 14:00:00 13,7 11,7 14 7 23 12 N 1010,3 20 0,0
15.10.2018 13:00:00 13,0 11,2 15 8 29 16 N 1010,1 - 0,0
15.10.2018 12:00:00 12,3 10,9 22 12 31 17 N 1009,6 - 0,0
15.10.2018 11:00:00 12,0 10,4 20 11 29 15 N 1009,4 18 0,0
15.10.2018 10:00:00 12,1 10,5 16 9 26 14 N 1008,9 - 0,0
15.10.2018 09:00:00 11,8 10,4 17 9 24 13 N 1008,1 - 0,0
15.10.2018 08:00:00 11,5 10,2 20 11 31 17 N 1007,5 20 0,0
15.10.2018 07:00:00 11,7 10,6 23 12 34 19 N 1007,3 - 0,0
15.10.2018 06:00:00 11,6 10,7 24 13 34 18 N 1007,1 - 0,0
15.10.2018 05:00:00 11,8 10,4 24 13 34 18 N 1007,1 20 0,0
15.10.2018 04:00:00 12,3 10,2 21 11 31 17 N 1007,6 - 0,0
15.10.2018 03:00:00 12,3 10,4 18 10 33 18 N 1007,7 - 0,0
15.10.2018 02:00:00 12,3 10,2 23 13 32 17 N 1007,3 20 0,0
15.10.2018 01:00:00 12,4 10,1 19 11 29 16 N 1007,5 - 0,0
15.10.2018 00:00:00 12,5 10,0 19 11 34 18 N 1007,8 - 0,0
14.10.2018 23:00:00 12,6 10,3 16 9 31 17 N 1007,7 20 0,0
14.10.2018 22:00:00 12,6 9,8 22 12 37 20 N 1007,7 - 0,0
14.10.2018 21:00:00 12,5 9,5 28 15 42 23 N 1007,5 - 0,0
14.10.2018 20:00:00 12,5 9,7 29 15 41 22 N 1007,3 15 0,0
14.10.2018 19:00:00 12,7 10,1 27 15 40 22 N 1007,2 - 0,0
14.10.2018 18:00:00 12,6 10,0 27 15 39 21 N 1007,1 - 0,0
14.10.2018 17:00:00 13,0 10,4 24 13 45 24 N 1007,4 15 0,0
14.10.2018 16:00:00 13,3 10,5 27 15 48 26 N 1007,0 - 0,0
14.10.2018 15:00:00 13,0 10,4 37 20 51 28 N 1006,5 - 0,0
14.10.2018 14:00:00 12,6 10,7 39 21 56 31 N 1006,8 15 0,0
14.10.2018 13:00:00 12,5 11,2 39 21 54 29 N 1006,8 - 0,2
14.10.2018 12:00:00 12,5 11,1 35 19 53 29 N 1006,4 - 0,0
14.10.2018 11:00:00 12,1 11,6 35 19 50 27 NNE 1005,7 15 0,2
14.10.2018 10:00:00 11,9 11,6 37 20 50 27 NNE 1005,6 - 2,0
14.10.2018 09:00:00 12,4 12,1 29 16 58 31 NNE 1005,4 - 1,2
14.10.2018 08:00:00 12,5 12,3 33 18 55 30 N 1004,4 - 2,6
14.10.2018 07:00:00 12,4 12,2 16 9 26 14 N 1004,5 - 2,3
14.10.2018 06:00:00 12,3 12,1 8 4 22 12 N 1004,5 - 2,2
14.10.2018 05:00:00 11,8 11,6 9 5 22 12 N 1004,5 10 4,0
14.10.2018 04:00:00 11,9 11,7 13 7 22 12 WNW 1005,2 - 5,1
14.10.2018 03:00:00 13,2 13,0 9 5 24 13 SSE 1005,1 - 2,4
14.10.2018 02:00:00 13,4 13,2 14 8 32 18 SSE 1006,0 15 1,6
14.10.2018 01:00:00 13,5 13,3 22 12 33 18 S 1007,0 - 0,8
14.10.2018 00:00:00 13,5 13,3 19 10 39 21 SSE 1007,4 - 0,8
13.10.2018 23:00:00 13,5 13,2 16 9 26 14 S 1007,3 15 0,0
13.10.2018 22:00:00 13,7 13,2 20 11 33 18 S 1007,3 - 0,8
13.10.2018 21:00:00 14,0 13,2 29 16 41 22 SSW 1007,8 - 0,8
13.10.2018 20:00:00 15,0 14,4 25 14 51 27 SW 1007,1 - 0,2
13.10.2018 19:00:00 15,2 14,6 32 17 53 29 SSW 1006,0 - 0,0
13.10.2018 18:00:00 16,2 14,7 41 22 62 34 S 1005,4 - 0,0
13.10.2018 17:00:00 16,9 14,9 48 26 76 41 S 1005,0 10 0,0
13.10.2018 16:00:00 17,4 14,7 51 28 78 42 S 1004,5 - 0,0
13.10.2018 15:00:00 17,7 14,8 50 27 83 45 S 1004,7 - 0,0
13.10.2018 14:00:00 17,7 14,8 51 28 80 43 S 1004,6 - 0,0
13.10.2018 13:00:00 17,6 14,7 49 26 89 48 S 1004,9 - 0,0
13.10.2018 12:00:00 18,2 15,1 52 28 81 44 S 1005,4 - 0,0
13.10.2018 11:00:00 17,3 14,8 45 25 75 40 S 1005,9 15 0,0
13.10.2018 10:00:00 18,0 14,7 54 29 95 52 S 1006,4 - 0,0
13.10.2018 09:00:00 19,1 14,8 73 40 97 52 SSW 1005,8 - 0,0
13.10.2018 08:00:00 17,9 14,4 59 32 88 47 S 1005,4 10 0,0
13.10.2018 07:00:00 17,7 15,3 58 31 89 48 S 1005,7 - 0,0
13.10.2018 06:00:00 16,4 15,8 56 31 83 45 S 1006,4 - 0,0
13.10.2018 05:00:00 16,7 15,6 55 30 78 42 S 1006,6 10 0,0
13.10.2018 04:00:00 16,5 15,7 53 29 82 44 S 1007,1 - 0,0
13.10.2018 03:00:00 16,4 15,8 48 26 79 43 S 1007,7 - 0,0
13.10.2018 02:00:00 16,4 15,8 50 27 76 41 S 1007,6 10 0,4
13.10.2018 01:00:00 16,5 15,7 52 28 79 43 S 1008,3 - 0,0
13.10.2018 00:00:00 16,5 15,7 54 29 79 43 S 1008,2 - 0,0
12.10.2018 23:00:00 16,4 15,8 46 25 78 42 S 1008,7 6 0,0
12.10.2018 22:00:00 16,5 15,9 50 27 77 41 S 1008,6 - 0,0
12.10.2018 21:00:00 16,4 15,8 53 29 80 43 S 1008,8 - 0,0
12.10.2018 20:00:00 16,5 15,7 58 31 86 47 S 1008,3 8 0,0
12.10.2018 19:00:00 16,4 14,9 53 29 85 46 S 1008,1 - 0,0

tt = temperature
td = dewpoint
ff = wind speed
fx = gusts
dd = wind direction
ppp = reduced air pressure
vv = visibility
rr = precipitation

Next stations